Home   Weather   Rosenheim   Past weeks

Flag for Germany Past Weather in Rosenheim, Bavaria, Germany — Yesterday and Last 2 Weeks

Now
39 °F

Chilly.


Feels Like: 39 °F
Forecast: 19 / 40 °F
Wind: 1 mph from East

Location: Kufstein

Current Time: Dec 6, 2016 at 3:26:55 pm

Latest Report: Dec 6, 2016 at 2:00 pm


Visibility: N/A

Pressure: 30.49 "Hg

Humidity: 50%

Dew Point: 22 °F

Location of RosenheimLocation

Past Weather in Rosenheim — Graph

°F

Rosenheim Temperature Yesterday

Maximum temperature yesterday: 38 °F (at 3:00 pm)
Minimum temperature yesterday: 24 °F (at 6:00 am)
Average temperature yesterday: 28 °F

High & Low Weather Summary for the Past Weeks

 TemperatureHumidityPressure
High67 °F (Nov 21, 2:00 pm)95% (Nov 27, 7:00 am)30.68 "Hg (Nov 27, 7:00 am)
Low21 °F (Nov 29, 7:00 am)36% (Nov 21, 3:00 pm)29.67 "Hg (Nov 21, 2:00 pm)
Average38 °F77%30.24 "Hg
* Reported Nov 21 2:00 pm — Dec 6 2:00 pm, Rosenheim, Weather by CustomWeather, © 2016

Note: Actual official high and low records may vary slightly from our data, if they occured in-between our weather recording intervals... More about our weather records

Advertising

Rosenheim Weather History for the Previous 24 Hours

Scroll right to see more
 ConditionsComfort  
Time TempWeatherWind HumidityBarometerVisibility
2:00 pm
Tue, Dec 6
39 °FChilly.1 mph50%30.49 "HgN/A
1:00 pm38 °FChilly.No wind52%30.50 "HgN/A
12:00 pm38 °FChilly.2 mph49%30.52 "HgN/A
11:00 am33 °FChilly.2 mph63%30.56 "HgN/A
10:00 am28 °FChilly.3 mph73%30.58 "HgN/A
9:00 am27 °FChilly.2 mph77%30.58 "HgN/A
8:00 am26 °FChilly.3 mph79%30.56 "HgN/A
7:00 am26 °FChilly.3 mph79%30.55 "HgN/A
6:00 am26 °FChilly.3 mph80%30.54 "HgN/A
5:00 am26 °FChilly.1 mph82%30.55 "HgN/A
4:00 am26 °FChilly.1 mph82%30.55 "HgN/A
3:00 am26 °FChilly.1 mph82%30.54 "HgN/A
2:00 am26 °FChilly.2 mph81%30.52 "HgN/A
1:00 am26 °FChilly.1 mph83%30.51 "HgN/A
12:00 am27 °FChilly.1 mph82%30.51 "HgN/A
11:00 pm
Mon, Dec 5
27 °FChilly.1 mph82%30.50 "HgN/A
10:00 pm27 °FChilly.No wind82%30.50 "HgN/A
9:00 pm27 °FChilly.No wind83%30.49 "HgN/A
8:00 pm28 °FChilly.1 mph85%30.48 "HgN/A
7:00 pm29 °FChilly.No wind84%30.46 "HgN/A
6:00 pm30 °FChilly.No wind80%30.45 "HgN/A
5:00 pm32 °FChilly.No wind80%30.42 "HgN/A
4:00 pm35 °FChilly.1 mph72%30.40 "HgN/A
3:00 pm38 °FChilly.1 mph64%30.38 "HgN/A
Weather by CustomWeather, © 2016

See weather overviewHow to use our weather pages